Weather History for CZPC - October, 2013

Change the Weather History Date:

Sunday, October 20, 2013

  Actual Average Record
Temperature  
Mean Temperature 44 °F -  
Max Temperature 59 °F 49 °F 69 °F (2014)
Min Temperature 30 °F 30 °F 23 °F (1997)
Degree Days  
Heating Degree Days 20    
Moisture  
Dew Point 34 °F    
Average Humidity 71    
Maximum Humidity 93    
Minimum Humidity 34    
Precipitation  
Precipitation 0.00 in - - ()
Sea Level Pressure  
Sea Level Pressure 30.12 in    
Wind  
Wind Speed 6 mph ()    
Max Wind Speed 15 mph    
Max Gust Speed 22 mph    
Visibility 9.1 miles    
Events Rain    
Averages and records for this station are not official NWS values.
T = Trace of Precipitation, MM = Missing Value Source: Averaged Metar Reports

Daily Weather History Graph

Daily Weather History Graph

Search for Another Location

Airport or City:

Trip Planner

Search our weather history database for the weather conditions in past years. The results will help you decide how hot, cold, wet, or windy it might be!

Date:

Astronomy

Oct. 20, 2013 Rise Set
Actual Time 8:05 AM MDT 6:34 PM MDT
Civil Twilight 7:33 AM MDT 7:07 PM MDT
Nautical Twilight 6:55 AM MDT 7:44 PM MDT
Astronomical Twilight 6:18 AM MDT 8:21 PM MDT
Moon 7:35 PM MDT (10/20) 9:57 AM MDT (10/20)
Length of Visible Light 11h 34m
Length of Day
10h 29m
Full, 97% of the Moon is Illuminated
Oct 20
Full
Oct 26
Last Quarter
Nov 3
New
Nov 9
First Quarter
Nov 17
Full

Hourly Weather History & Observations

Time (MDT) Temp. Windchill Dew Point Humidity Pressure Visibility Wind Dir Wind Speed Gust Speed Precip Events Conditions
12:00 AM 41 °F - 36 °F 78% 30.14 in 10 mi SW 3.5 mph - - Rain Light Rain
12:00 AM 41.0 °F 38.0 °F 35.6 °F 81% 30.14 in 9.0 mi SW 4.6 mph - N/A Rain Light Rain
12:09 AM 41.0 °F 37.1 °F 35.6 °F 81% 30.14 in 9.0 mi WSW 5.8 mph - N/A   Overcast
12:14 AM 42.8 °F 39.3 °F 37.4 °F 81% 30.14 in 9.0 mi WSW 5.8 mph - N/A Rain Light Rain
1:00 AM 41.0 °F 36.4 °F 37.4 °F 87% 30.15 in 9.0 mi West 6.9 mph - N/A Rain Light Rain
1:27 AM 41.0 °F 37.1 °F 37.4 °F 87% 30.15 in 9.0 mi West 5.8 mph - N/A   Overcast
1:28 AM 41.0 °F 38.0 °F 37.4 °F 87% 30.15 in 9.0 mi WNW 4.6 mph - N/A Rain Light Rain
1:43 AM 39.2 °F 35.9 °F 37.4 °F 93% 30.15 in 9.0 mi NNW 4.6 mph - N/A   Overcast
2:00 AM 41.0 °F - 37.4 °F 87% 30.15 in 9.0 mi Variable 2.3 mph - N/A   Overcast
3:00 AM 39.2 °F 37.0 °F 35.6 °F 87% 30.15 in 9.0 mi WNW 3.5 mph - N/A   Overcast
4:00 AM 39.2 °F - 35.6 °F 87% 30.14 in 9.0 mi Variable 2.3 mph - N/A   Overcast
5:00 AM 35.6 °F 28.6 °F 33.8 °F 93% 30.14 in 9.0 mi WSW 9.2 mph - N/A   Mostly Cloudy
6:00 AM 35 °F - 32 °F 85% 30.14 in 10 mi WSW 8.1 mph - -  
6:00 AM 33.8 °F 27.7 °F 32.0 °F 93% 30.14 in 9.0 mi WSW 6.9 mph - N/A   Partly Cloudy
7:00 AM 33.8 °F 28.6 °F 30.2 °F 87% 30.15 in 9.0 mi West 5.8 mph - N/A   Overcast
8:00 AM 32.0 °F 25.6 °F 30.2 °F 93% 30.16 in 9.0 mi WNW 6.9 mph - N/A   Partly Cloudy
9:00 AM 33.8 °F 30.8 °F 32.0 °F 93% 30.17 in 9.0 mi West 3.5 mph - N/A   Clear
10:00 AM 37.4 °F 33.8 °F 33.8 °F 87% 30.15 in 9.0 mi WNW 4.6 mph - N/A   Clear
11:00 AM 41.0 °F 39.0 °F 35.6 °F 81% 30.12 in 9.0 mi NW 3.5 mph - N/A   Clear
12:00 PM 48 °F - 38 °F 60% 30.11 in 10 mi North 4.6 mph - -  
12:00 PM 48.2 °F - 39.2 °F 71% 30.10 in 9.0 mi NNW 3.5 mph - N/A   Clear
12:35 PM 55.4 °F - 32.0 °F 41% 30.07 in 9.0 mi West 15.0 mph - N/A   Overcast
1:00 PM 55.4 °F - 32.0 °F 41% 30.07 in 9.0 mi West 13.8 mph - N/A   Overcast
2:00 PM 59.0 °F - 30.2 °F 34% 30.04 in 9.0 mi WSW 15.0 mph - N/A   Overcast
3:00 PM 57.2 °F - 32.0 °F 38% 30.05 in 9.0 mi WSW 11.5 mph 17.3 mph N/A   Overcast
4:00 PM 60.8 °F - 32.0 °F 34% 30.03 in 9.0 mi WNW 15.0 mph 21.9 mph N/A   Clear
5:00 PM 59.0 °F - 32.0 °F 36% 30.06 in 9.0 mi West 12.7 mph 19.6 mph N/A   Clear
6:00 PM 54 °F - 34 °F 34% 30.10 in 10 mi ENE 5.8 mph - -  
6:00 PM 53.6 °F - 33.8 °F 47% 30.09 in 9.0 mi East 5.8 mph - N/A   Mostly Cloudy
7:00 PM 46.4 °F 41.9 °F 32.0 °F 57% 30.13 in 9.0 mi ESE 9.2 mph - N/A   Clear
8:00 PM 44.6 °F 38.4 °F 33.8 °F 66% 30.14 in 9.0 mi WSW 12.7 mph - N/A   Clear
9:00 PM 44.6 °F 38.4 °F 33.8 °F 66% 30.14 in 9.0 mi WSW 12.7 mph - N/A   Clear
10:00 PM 44.6 °F 37.8 °F 33.8 °F 66% 30.12 in 9.0 mi West 15.0 mph - N/A   Partly Cloudy
11:00 PM 46.4 °F 40.4 °F 33.8 °F 62% 30.12 in 9.0 mi WSW 13.8 mph - N/A   Partly Cloudy